TimeEST,TemperatureF,Dew PointF,Humidity,Sea Level PressureIn,VisibilityMPH,Wind Direction,Wind SpeedMPH,Gust SpeedMPH,PrecipitationIn,Events,Conditions,WindDirDegrees,DateUTC
12:53 AM,3.0,-2.0,80,30.32,10.0,Calm,Calm,-,N/A,,Clear,0,2013-01-08 05:53:00
1:53 AM,3.0,-0.9,84,30.31,9.0,Calm,Calm,-,N/A,,Clear,0,2013-01-08 06:53:00
2:53 AM,5.0,-0.0,80,30.30,10.0,Calm,Calm,-,N/A,,Clear,0,2013-01-08 07:53:00
3:53 AM,6.1,-0.0,76,30.29,10.0,Calm,Calm,-,N/A,,Clear,0,2013-01-08 08:53:00
4:53 AM,6.1,1.0,80,30.28,10.0,ENE,3.5,-,N/A,,Clear,60,2013-01-08 09:53:00
5:53 AM,5.0,-0.0,80,30.28,9.0,NNE,3.5,-,N/A,,Clear,30,2013-01-08 10:53:00
7:53 AM,3.0,-2.0,80,30.33,9.0,Calm,Calm,-,N/A,,Clear,0,2013-01-08 12:53:00
9:53 AM,14.0,9.0,80,30.32,10.0,NNE,3.5,-,N/A,,Clear,30,2013-01-08 14:53:00
10:53 AM,19.9,15.1,81,30.30,10.0,NE,4.6,-,N/A,,Clear,40,2013-01-08 15:53:00
11:53 AM,28.0,17.1,63,30.27,7.0,North,3.5,-,N/A,,Clear,350,2013-01-08 16:53:00
12:53 PM,33.1,19.0,56,30.25,8.0,Calm,Calm,-,N/A,,Clear,0,2013-01-08 17:53:00
1:53 PM,34.0,21.0,59,30.25,8.0,SW,3.5,-,N/A,,Clear,220,2013-01-08 18:53:00
2:53 PM,39.9,19.9,45,30.26,10.0,SW,3.5,-,N/A,,Clear,230,2013-01-08 19:53:00
3:53 PM,35.1,19.0,52,30.28,10.0,Variable,3.5,-,N/A,,Clear,0,2013-01-08 20:53:00
4:53 PM,27.0,19.0,72,30.31,10.0,Calm,Calm,-,N/A,,Clear,0,2013-01-08 21:53:00
5:53 PM,25.0,18.0,75,30.34,10.0,South,3.5,-,N/A,,Clear,170,2013-01-08 22:53:00
6:53 PM,21.9,17.1,82,30.36,10.0,Calm,Calm,-,N/A,,Clear,0,2013-01-08 23:53:00
7:53 PM,21.0,16.0,81,30.38,10.0,Calm,Calm,-,N/A,,Clear,0,2013-01-09 00:53:00
8:53 PM,18.0,12.9,81,30.38,10.0,NE,3.5,-,N/A,,Clear,40,2013-01-09 01:53:00
9:53 PM,17.1,14.0,88,30.39,9.0,Calm,Calm,-,N/A,,Clear,0,2013-01-09 02:53:00
10:53 PM,14.0,10.0,84,30.40,8.0,Calm,Calm,-,N/A,,Clear,0,2013-01-09 03:53:00